When you browse on this site, cookies collect data to enhance your experience and personalize the content and advertising you see.
Visit our Privacy Policy to learn more. By continuing to use the site, you agree to this use of cookies and data.
  • In United Kingdom
  • List of Countries
  • For 7 days
  • Water Temperature
  • Weather Map
  • Weather Widgets
  • user-avatar
    Login

    Hourly Weather Darabani

    Today, 23 September, Monday

    Time Temperature Precipitation Wind Pressure Humidity
    00:00 +13°C° 0 mm 0 mps 746 mmHg 59%
    01:00 +12°C° 0 mm 0 mps 746 mmHg 61%
    02:00 +13°C° 0 mm 1 mps 746 mmHg 61%
    03:00 +12°C° 0 mm 1 mps 746 mmHg 64%
    04:00 +12°C° 0 mm 1 mps 746 mmHg 67%
    05:00 +11°C° 0 mm 1 mps 746 mmHg 69%
    06:00 +13°C° 0 mm 1 mps 746 mmHg 66%
    07:00 +14°C° 0 mm 1 mps 746 mmHg 63%
    08:00 +15°C° 0 mm 1 mps 746 mmHg 60%
    09:00 +18°C° 0 mm 1 mps 746 mmHg 55%
    10:00 +19°C° 0 mm 1 mps 746 mmHg 50%
    11:00 +21°C° 0 mm 1 mps 746 mmHg 45%
    12:00 +22°C° 0 mm 1 mps 745 mmHg 42%
    13:00 +23°C° 0 mm 1 mps 745 mmHg 40%
    14:00 +24°C° 0 mm 2 mps 745 mmHg 38%
    15:00 +23°C° 0 mm 2 mps 745 mmHg 40%
    16:00 +23°C° 0 mm 1 mps 745 mmHg 42%
    17:00 +22°C° 0 mm 1 mps 745 mmHg 44%
    18:00 +19°C° 0 mm 2 mps 745 mmHg 51%
    19:00 +18°C° 0 mm 4 mps 746 mmHg 57%
    20:00 +15°C° 0 mm 5 mps 746 mmHg 64%
    21:00 +13°C° 0 mm 4 mps 746 mmHg 67%
    22:00 +12°C° 0 mm 4 mps 746 mmHg 70%
    23:00 +11°C° 0 mm 3 mps 746 mmHg 73%

    Tomorrow, 24 September, Tuesday

    Time Temperature Precipitation Wind Pressure Humidity
    00:00 +11°C° 0 mm 3 mps 746 mmHg 74%
    01:00 +10°C° 0 mm 2 mps 746 mmHg 76%
    02:00 +9°C° 0 mm 2 mps 747 mmHg 77%
    03:00 +9°C° 0 mm 2 mps 746 mmHg 78%
    04:00 +8°C° 0 mm 2 mps 746 mmHg 79%
    05:00 +8°C° 0 mm 2 mps 746 mmHg 80%
    06:00 +8°C° 0 mm 2 mps 746 mmHg 74%
    07:00 +9°C° 0 mm 2 mps 746 mmHg 69%
    08:00 +10°C° 0 mm 3 mps 746 mmHg 63%
    09:00 +12°C° 0 mm 3 mps 746 mmHg 59%
    10:00 +14°C° 0 mm 3 mps 746 mmHg 54%
    11:00 +17°C° 0 mm 3 mps 746 mmHg 50%
    12:00 +18°C° 0 mm 3 mps 746 mmHg 47%
    13:00 +19°C° 0 mm 3 mps 745 mmHg 45%
    14:00 +21°C° 0 mm 3 mps 745 mmHg 43%
    15:00 +21°C° 0 mm 3 mps 745 mmHg 45%
    16:00 +20°C° 0 mm 2 mps 744 mmHg 46%
    17:00 +20°C° 0 mm 2 mps 744 mmHg 47%
    18:00 +18°C° 0 mm 2 mps 744 mmHg 53%
    19:00 +17°C° 0 mm 2 mps 745 mmHg 58%
    20:00 +15°C° 0 mm 1 mps 745 mmHg 64%
    21:00 +14°C° 0 mm 2 mps 745 mmHg 67%
    22:00 +13°C° 0 mm 2 mps 745 mmHg 70%
    23:00 +13°C° 0 mm 2 mps 745 mmHg 73%

    Day after tomorrow, 25 September, Wednesday

    Time Temperature Precipitation Wind Pressure Humidity
    00:00 +12°C° 0 mm 2 mps 745 mmHg 76%
    01:00 +12°C° 0 mm 1 mps 745 mmHg 78%
    02:00 +12°C° 0 mm 1 mps 745 mmHg 80%
    03:00 +11°C° 0 mm 1 mps 745 mmHg 83%
    04:00 +11°C° 0 mm 1 mps 745 mmHg 86%
    05:00 +11°C° 0 mm 1 mps 745 mmHg 88%
    06:00 +12°C° 0 mm 2 mps 744 mmHg 84%
    07:00 +13°C° 0 mm 2 mps 744 mmHg 79%
    08:00 +13°C° 0 mm 3 mps 744 mmHg 75%
    09:00 +15°C° 0 mm 4 mps 744 mmHg 67%
    10:00 +18°C° 0 mm 4 mps 744 mmHg 59%
    11:00 +21°C° 0 mm 5 mps 744 mmHg 51%
    12:00 +21°C° 0 mm 5 mps 744 mmHg 48%
    13:00 +22°C° 0 mm 5 mps 743 mmHg 45%
    14:00 +23°C° 0 mm 6 mps 743 mmHg 42%
    15:00 +22°C° 0 mm 5 mps 743 mmHg 43%
    16:00 +22°C° 0 mm 4 mps 743 mmHg 43%
    17:00 +22°C° 0 mm 4 mps 743 mmHg 44%
    18:00 +20°C° 0 mm 4 mps 743 mmHg 48%
    19:00 +19°C° 0 mm 3 mps 743 mmHg 53%
    20:00 +18°C° 0 mm 3 mps 743 mmHg 57%
    21:00 +17°C° 0 mm 2 mps 743 mmHg 61%
    22:00 +17°C° 0 mm 2 mps 743 mmHg 65%
    23:00 +16°C° 0 mm 2 mps 743 mmHg 69%

    26 September, Thursday

    Time Temperature Precipitation Wind Pressure Humidity
    00:00 +16°C° 0.1 mm 2 mps 743 mmHg 74%
    01:00 +15°C° 0.1 mm 2 mps 743 mmHg 79%
    02:00 +15°C° 0.1 mm 2 mps 743 mmHg 83%
    03:00 +15°C° 0 mm 2 mps 743 mmHg 85%
    04:00 +14°C° 0 mm 2 mps 743 mmHg 87%
    05:00 +14°C° 0 mm 2 mps 743 mmHg 89%
    06:00 +15°C° 0 mm 2 mps 743 mmHg 86%
    07:00 +15°C° 0 mm 2 mps 743 mmHg 83%
    08:00 +16°C° 0 mm 3 mps 743 mmHg 81%
    09:00 +17°C° 0 mm 3 mps 743 mmHg 72%
    10:00 +19°C° 0 mm 3 mps 744 mmHg 64%
    11:00 +20°C° 0 mm 4 mps 744 mmHg 55%
    12:00 +21°C° 0 mm 4 mps 744 mmHg 54%
    13:00 +21°C° 0 mm 4 mps 744 mmHg 52%
    14:00 +22°C° 0 mm 4 mps 743 mmHg 50%
    15:00 +21°C° 0 mm 3 mps 743 mmHg 52%
    16:00 +21°C° 0 mm 3 mps 743 mmHg 54%
    17:00 +21°C° 0 mm 3 mps 744 mmHg 56%
    18:00 +19°C° 0 mm 2 mps 744 mmHg 61%
    19:00 +18°C° 0 mm 2 mps 744 mmHg 66%
    20:00 +17°C° 0 mm 2 mps 744 mmHg 72%
    21:00 +16°C° 0 mm 2 mps 745 mmHg 75%
    22:00 +16°C° 0 mm 3 mps 745 mmHg 78%
    23:00 +14°C° 0 mm 3 mps 745 mmHg 81%

    27 September, Friday

    Time Temperature Precipitation Wind Pressure Humidity
    00:00 +14°C° 0.1 mm 3 mps 745 mmHg 83%
    01:00 +14°C° 0.1 mm 3 mps 745 mmHg 85%
    02:00 +14°C° 0.1 mm 3 mps 746 mmHg 87%
    03:00 +14°C° 0.1 mm 3 mps 746 mmHg 87%
    04:00 +14°C° 0.1 mm 3 mps 746 mmHg 86%
    05:00 +14°C° 0.1 mm 3 mps 746 mmHg 86%
    06:00 +14°C° 0 mm 3 mps 746 mmHg 85%
    07:00 +14°C° 0 mm 3 mps 746 mmHg 83%
    08:00 +14°C° 0 mm 3 mps 746 mmHg 82%
    09:00 +16°C° 0 mm 3 mps 747 mmHg 76%
    10:00 +17°C° 0 mm 3 mps 747 mmHg 70%
    11:00 +19°C° 0 mm 2 mps 748 mmHg 64%
    12:00 +19°C° 0 mm 2 mps 747 mmHg 61%
    13:00 +20°C° 0 mm 2 mps 747 mmHg 58%
    14:00 +20°C° 0 mm 2 mps 747 mmHg 54%
    15:00 +20°C° 0 mm 2 mps 747 mmHg 55%
    16:00 +20°C° 0 mm 2 mps 747 mmHg 55%
    17:00 +20°C° 0 mm 2 mps 747 mmHg 56%
    18:00 +19°C° 0 mm 2 mps 747 mmHg 59%
    19:00 +18°C° 0 mm 2 mps 748 mmHg 63%
    20:00 +16°C° 0 mm 1 mps 748 mmHg 67%
    21:00 +16°C° 0 mm 1 mps 748 mmHg 70%
    22:00 +15°C° 0 mm 1 mps 748 mmHg 73%
    23:00 +14°C° 0 mm 1 mps 749 mmHg 76%

    28 September, Saturday

    Time Temperature Precipitation Wind Pressure Humidity
    00:00 +14°C° 0 mm 1 mps 749 mmHg 80%
    01:00 +13°C° 0 mm 1 mps 748 mmHg 83%
    02:00 +11°C° 0 mm 0 mps 748 mmHg 86%
    03:00 +12°C° 0 mm 1 mps 748 mmHg 88%
    04:00 +12°C° 0 mm 1 mps 748 mmHg 89%
    05:00 +12°C° 0 mm 1 mps 748 mmHg 90%
    06:00 +13°C° 0 mm 1 mps 748 mmHg 86%
    07:00 +14°C° 0 mm 1 mps 748 mmHg 82%
    08:00 +14°C° 0 mm 2 mps 748 mmHg 78%
    09:00 +16°C° 0 mm 2 mps 748 mmHg 70%
    10:00 +18°C° 0 mm 2 mps 748 mmHg 62%
    11:00 +20°C° 0 mm 3 mps 748 mmHg 53%
    12:00 +21°C° 0 mm 2 mps 748 mmHg 48%
    13:00 +23°C° 0 mm 2 mps 747 mmHg 44%
    14:00 +24°C° 0 mm 1 mps 747 mmHg 39%
    15:00 +24°C° 0 mm 1 mps 747 mmHg 40%
    16:00 +24°C° 0 mm 1 mps 747 mmHg 41%
    17:00 +23°C° 0 mm 1 mps 746 mmHg 42%
    18:00 +21°C° 0 mm 2 mps 746 mmHg 46%
    19:00 +19°C° 0 mm 2 mps 746 mmHg 50%
    20:00 +18°C° 0 mm 2 mps 747 mmHg 54%
    21:00 +17°C° 0 mm 2 mps 747 mmHg 58%
    22:00 +16°C° 0 mm 2 mps 747 mmHg 62%
    23:00 +16°C° 0 mm 2 mps 747 mmHg 66%
    Show more